Find Starlink 6258

NORAD ID: 56413 Int'l Des: 2023-061 Owner: SPXS Country: US Constellation: starlink operational
LEOCIRCULAR

实时位置

正在加载3D地球...

关于 Starlink 6258

正在加载描述...

即将过境

Passes for default location (London). Set your location on the main map for personalized predictions.

高度历史

Loading altitude history...

两行轨道根数

1 56413U 23061AR 26105.91588353 .00001032 00000-0 49300-4 0 9993
2 56413 43.0055 337.1615 0001683 269.6404 90.4254 15.25910386162567
Epoch: Apr 15, 2026 • Age: 11 hours

当前状态

高度 492.2 km
速度 7.62 km/s
星下点 -21.24°S, 26.97°W
发射日期 May 4, 2023
运行时间 2.9 years
类型 internet

技术详情

分类 Payload
质量 305.00 kg
干质量 290.00 kg
总质量 305.00 kg
长度 0.20 m
直径 2.80 m
跨度 9.00 m
形状 Box + pan
制造商 SPXS
平台类型 Starlink
阶段状态 In Orbit
所有者/国家 SPXS/US

Most Searched